Theta_e
344 345 345 342 333 336 337 337 338 338 336 336 334 331 327 329 330 331 332 333 336 339 340 340 341 341 341 342 342 342 342 341 339 337 337 335 335 335 335 334 333 332 332
339 340 343 340 331 333 335 335 335 335 335 335 333 329 326 325 324 327 330 333 336 338 339 339 340 340 340 340 340 341 341 341 339 337 336 335 335 334 333 333 332 331 330
339 340 342 341 332 335 335 334 335 335 335 334 331 331 328 327 324 323 328 333 335 336 337 337 338 339 339 340 341 339 339 339 339 338 335 335 334 332 332 331 330 328 325
340 341 343 341 334 335 332 331 332 333 334 333 331 330 330 330 328 325 323 325 329 333 335 336 334 334 337 338 339 340 340 340 339 336 335 334 333 331 330 331 328 324 323
340 340 338 337 336 333 330 331 331 330 328 328 330 330 330 330 330 327 325 325 324 324 324 325 326 327 328 332 335 336 336 336 337 336 334 333 332 331 330 329 327 324 322
342 333 335 334 336 333 331 330 330 329 328 330 330 331 330 328 330 327 326 326 326 324 323 323 325 325 326 328 330 331 333 334 335 333 333 333 332 331 330 329 327 324 321
336 332 334 337 334 334 334 333 333 332 331 332 333 332 332 328 329 327 327 326 326 326 325 324 322 323 323 324 326 329 331 332 332 332 331 330 332 331 330 328 325 323 322
336 332 336 336 335 336 336 336 336 335 334 334 335 335 332 329 327 327 327 327 326 326 325 324 323 321 322 322 322 324 328 330 330 330 331 330 329 328 327 326 324 323 322
336 333 336 336 335 336 335 335 335 335 334 334 335 335 335 334 328 327 327 328 328 328 326 325 323 322 321 321 321 321 324 326 327 327 327 327 327 327 326 324 323 322 321
335 335 335 338 336 336 335 335 335 335 335 335 334 335 335 335 333 333 329 327 329 329 328 325 324 322 321 320 319 317 317 321 324 325 325 325 323 322 322 321 321 322 322
334 335 335 337 338 338 339 338 338 337 336 334 334 335 335 334 335 334 332 328 328 329 329 328 325 323 321 319 318 317 314 312 311 310 312 315 315 315 316 316 317 319 320
335 335 336 337 340 341 339 339 338 339 338 336 335 335 335 334 334 333 333 332 329 328 329 329 327 323 321 320 319 318 313 311 311 311 311 310 310 311 310 309 307 308 314
340 338 339 340 341 339 340 338 339 341 340 339 337 336 335 335 334 333 333 333 331 331 328 329 329 325 320 319 319 320 316 313 312 312 313 313 312 312 310 308 307 307 306
340 337 338 340 339 337 337 338 342 340 339 338 336 338 337 338 337 334 333 334 333 333 330 328 329 327 323 319 316 318 319 317 314 315 315 315 315 312 311 308 308 308 308
340 338 338 338 339 339 339 339 341 340 339 341 339 337 338 338 339 338 336 334 333 334 332 329 328 328 325 324 320 315 315 318 317 315 315 315 314 311 309 309 308 308 308
339 338 338 338 339 339 340 341 338 337 336 336 335 336 334 335 335 335 337 336 335 334 334 332 329 327 326 325 323 318 312 308 311 312 313 312 312 310 309 309 309 308 308
335 334 333 336 336 334 334 332 332 332 331 331 330 329 330 330 331 332 333 335 335 334 333 332 330 328 326 324 324 319 314 309 311 312 311 311 310 310 309 309 309 308 308
324 324 324 324 325 326 326 326 327 327 326 326 325 325 325 326 327 328 331 332 333 332 333 332 331 330 326 324 323 319 314 310 311 310 309 310 310 310 310 309 309 308 308
329 328 327 326 323 323 324 325 324 326 326 325 324 325 325 326 327 328 330 331 331 331 332 332 331 329 327 325 322 323 314 310 311 311 311 310 310 311 311 310 309 309 309
330 330 328 327 326 324 324 324 324 325 324 324 324 325 325 325 326 329 329 329 330 329 329 328 328 327 327 324 324 323 315 310 310 312 312 312 311 311 311 310 309 309 309
328 329 329 328 327 326 324 325 325 326 326 325 325 326 327 326 326 326 326 327 328 328 328 328 328 328 326 325 324 322 321 315 311 313 313 313 315 315 312 311 310 310 309
325 326 328 327 328 327 325 325 326 327 326 323 321 320 324 327 327 327 326 322 321 321 323 325 326 326 326 326 326 324 323 320 314 313 314 317 315 314 314 311 311 310 310
324 324 325 325 325 325 325 324 326 326 325 324 324 319 320 322 324 324 324 324 324 323 321 317 315 319 322 323 323 323 323 323 322 319 315 316 316 313 313 313 311 311 310
323 323 324 324 324 324 325 324 324 324 323 323 322 318 318 318 318 318 319 321 321 322 323 323 316 314 314 315 315 315 317 321 320 319 319 317 316 316 314 313 313 312 312
322 323 324 324 324 324 324 323 324 323 322 321 320 320 319 319 318 318 318 320 321 321 321 321 319 315 313 314 314 314 314 314 316 317 316 316 316 316 316 315 313 313 312
320 321 322 322 323 323 324 323 322 319 319 319 318 318 317 316 316 316 316 316 316 315 315 315 315 315 315 314 314 314 314 314 314 314 314 314 314 315 315 315 313 313 312
Wind_Speed
9 10 9 7 6 11 10 8 6 6 5 4 3 1 1 1 1 2 3 1 0 1 1 2 2 4 6 8 10 11 11 11 11 18 13 10 8 5 6 4 6 5 7
12 11 10 9 8 10 10 8 7 6 6 3 2 2 3 4 3 3 2 3 4 2 3 4 3 4 4 7 9 11 11 11 9 15 18 14 9 8 7 8 8 8 9
11 11 10 10 9 5 6 8 9 7 7 4 3 2 3 3 4 6 6 5 4 3 3 3 4 5 5 7 8 9 10 9 9 13 19 16 13 11 10 8 8 10 12
12 10 10 11 9 7 6 8 8 9 7 4 4 3 1 3 4 5 7 6 5 4 4 4 4 4 4 5 6 7 8 9 10 14 17 18 16 14 11 11 12 13 12
12 12 10 13 10 8 7 8 8 7 7 7 5 3 2 1 2 3 4 5 5 4 3 3 3 4 4 5 5 6 7 9 13 17 18 18 17 15 14 13 14 14 11
14 11 14 13 10 8 8 8 7 7 8 8 6 3 1 2 1 1 2 3 4 5 4 4 3 4 5 4 4 5 6 5 10 13 15 17 15 15 15 15 15 15 13
16 16 15 13 12 11 9 8 7 6 7 5 4 3 1 3 3 1 0 1 1 2 3 2 3 2 3 4 4 4 6 9 9 8 12 13 13 13 14 15 15 11 7
17 18 17 15 14 12 11 9 8 7 7 8 8 5 3 3 4 3 2 1 1 1 1 1 0 1 2 3 3 3 4 7 9 10 11 11 13 14 12 11 12 10 9
20 21 20 18 15 14 12 10 8 6 8 9 9 10 8 7 6 5 5 4 3 3 3 3 2 1 2 2 2 2 4 6 8 10 11 12 13 12 14 14 14 13 13
20 23 19 20 17 17 13 10 7 8 9 12 11 10 10 10 9 7 9 8 7 5 4 4 4 4 3 3 3 3 3 6 8 9 10 11 11 12 12 11 10 13 14
18 21 18 20 19 16 16 14 13 12 13 14 14 14 14 13 13 12 11 11 10 10 8 6 6 7 6 5 5 4 4 5 8 9 9 10 10 10 10 10 12 13 14
20 20 20 22 18 16 19 17 17 17 18 17 17 18 17 17 17 15 15 14 13 14 13 9 8 7 9 9 8 6 6 9 9 10 10 10 10 9 7 7 10 13 14
17 21 22 21 17 20 21 17 16 17 20 21 19 20 20 20 19 19 18 17 17 17 15 14 12 11 12 12 12 12 11 13 12 12 11 10 9 8 8 7 7 7 9
16 12 16 21 23 23 21 19 16 12 14 15 16 18 18 20 19 21 22 21 21 21 19 20 19 17 16 15 16 17 17 16 18 17 14 12 13 13 12 11 11 10 11
21 17 20 22 20 21 21 19 16 17 17 19 17 19 21 23 22 21 21 23 24 25 23 22 25 24 22 20 19 19 19 21 21 19 21 19 19 17 15 15 12 14 15
19 16 17 18 16 18 16 14 15 15 17 20 20 20 21 23 24 24 25 25 26 26 27 26 28 28 27 23 23 22 21 21 19 18 18 18 19 17 18 18 16 14 15
8 6 6 7 8 10 13 12 12 11 15 18 20 21 24 27 28 27 28 21 27 25 34 29 32 31 29 27 25 24 22 21 20 20 20 20 19 19 20 20 20 18 17
11 10 7 3 3 5 6 8 7 8 10 11 15 16 18 16 18 22 24 25 28 25 25 27 29 31 32 30 27 27 23 24 24 22 23 22 21 21 21 23 22 21 19
9 8 6 6 6 3 5 5 6 7 8 12 14 14 15 14 16 19 21 21 24 27 29 29 28 29 31 31 28 27 27 29 27 24 23 23 22 22 21 22 24 22 21
3 3 4 6 4 6 6 6 5 7 10 12 13 12 13 14 13 13 16 19 19 20 21 21 24 28 26 29 29 29 30 31 33 31 29 27 26 25 25 24 25 26 26
4 4 5 7 6 7 7 6 8 11 12 11 12 10 12 13 13 14 15 16 17 17 17 22 22 20 24 25 28 28 29 32 36 35 34 33 34 35 32 30 29 27 25
8 9 8 8 10 10 8 7 7 10 11 14 16 15 13 17 16 16 16 15 13 13 15 17 20 22 23 24 26 28 28 30 35 39 38 35 34 32 35 36 34 33 34
14 13 12 10 11 12 12 9 10 11 12 14 17 17 14 13 14 15 15 15 17 16 15 17 19 20 20 22 24 25 27 32 34 37 40 37 35 34 34 38 39 38 38
14 14 11 10 11 11 12 8 8 10 13 15 14 14 14 14 15 15 17 20 21 21 19 19 18 18 18 19 20 22 26 28 30 33 38 38 34 30 34 39 41 45 43
10 11 10 11 10 10 13 10 9 10 12 13 13 14 14 14 13 15 16 16 17 17 18 18 18 20 22 24 25 27 26 24 28 30 34 36 36 37 40 37 40 41 42
10 11 7 7 7 8 8 7 6 7 7 8 11 13 13 15 16 15 13 11 11 12 13 15 15 18 20 22 24 23 25 26 29 32 33 35 39 42 47 43 41 42 42
Wind_Direction
192 186 174 179 136 122 148 168 189 197 184 159 142 147 164 195 197 237 252 240 101 6 63 71 127 186 188 187 190 192 193 204 189 171 176 163 168 160 155 135 126 135 137
180 178 174 167 142 128 144 158 160 171 159 153 195 107 93 86 67 67 108 118 81 62 67 78 104 123 146 171 178 178 192 199 198 187 180 174 166 149 145 136 130 133 127
194 172 180 179 180 154 162 154 153 166 163 177 156 126 93 83 71 72 77 88 88 93 92 88 101 105 133 145 154 174 186 196 202 206 184 184 176 170 168 160 150 140 126
193 183 192 188 183 173 175 168 163 165 174 186 175 154 114 78 68 70 77 81 82 93 101 94 88 107 141 152 165 174 190 197 193 191 189 183 186 177 176 161 151 137 130
190 192 191 183 189 184 180 175 179 190 174 166 167 174 171 128 58 67 82 77 77 67 72 85 96 97 111 138 160 185 196 193 182 177 187 185 188 183 176 166 156 147 141
199 186 176 182 194 187 178 177 188 182 184 171 162 164 270 226 198 32 86 74 76 77 62 67 84 94 96 107 121 141 146 155 177 185 189 190 197 188 182 176 171 167 154
185 186 183 185 180 176 177 181 183 193 190 205 191 169 214 214 239 231 194 122 113 121 80 75 71 95 104 102 110 137 158 156 158 183 196 199 196 196 189 183 177 175 186
189 194 186 187 186 184 179 185 196 207 214 225 238 239 231 231 234 233 270 291 278 252 282 232 84 101 131 115 111 125 152 164 170 174 178 190 189 191 196 191 187 187 200
201 202 197 194 197 200 198 198 212 226 234 235 261 234 237 236 231 245 263 275 278 293 287 260 232 204 187 175 149 157 179 173 172 172 172 176 183 184 189 193 206 210 205
214 213 207 212 207 220 215 216 223 250 257 257 262 250 244 240 242 254 249 251 257 279 293 268 260 238 220 214 190 178 193 192 188 186 182 184 185 186 192 195 204 208 209
217 222 219 223 225 230 237 234 239 241 248 255 259 262 252 248 249 248 250 252 251 259 262 261 252 240 232 228 215 205 206 218 196 185 185 187 188 189 196 208 215 211 217
228 226 226 223 228 230 239 235 238 243 249 251 255 256 259 254 247 249 254 254 248 251 252 257 260 247 232 229 227 226 214 202 193 184 178 174 172 179 199 219 220 219 221
243 223 231 228 230 239 247 254 249 244 252 256 263 266 266 260 251 250 249 250 248 253 248 248 251 248 236 232 228 230 226 220 216 212 210 207 205 217 231 214 197 203 210
242 242 249 248 238 250 254 258 252 251 266 262 270 272 279 279 269 255 253 254 252 251 249 241 239 241 239 237 231 230 233 233 233 236 235 234 229 231 236 216 215 211 192
231 230 238 238 234 240 242 242 245 255 263 260 261 272 279 278 281 279 267 260 259 259 254 246 237 236 236 236 236 238 235 235 238 240 235 240 236 227 227 217 214 215 214
218 222 232 239 231 229 230 238 252 256 260 259 272 269 271 281 270 275 275 262 255 252 257 249 243 239 240 240 238 239 240 235 231 231 228 225 220 230 220 219 221 225 220
171 167 200 226 242 242 244 247 247 253 268 272 279 277 273 267 274 271 269 273 261 251 250 247 249 245 241 239 239 236 239 234 226 228 228 225 229 229 225 226 226 229 225
107 111 113 137 231 263 280 268 270 289 291 299 307 314 306 296 290 279 273 262 258 255 249 256 257 247 242 236 236 238 234 228 227 228 227 227 228 230 231 228 228 232 223
95 90 81 62 39 324 272 296 315 301 298 302 308 320 318 308 300 292 281 273 266 263 259 255 254 252 248 240 236 236 235 229 228 228 229 230 231 233 236 237 234 230 229
66 69 47 42 1 338 337 338 335 313 302 301 301 310 314 310 306 294 288 280 278 277 271 266 268 266 255 243 240 238 234 232 228 231 235 238 237 240 242 241 233 233 231
18 1 351 360 346 329 347 345 330 313 310 306 308 314 308 303 309 310 302 291 280 275 275 266 266 266 263 258 249 243 243 229 234 235 241 242 250 248 243 243 240 235 231
336 325 313 323 327 329 321 304 295 302 307 319 324 312 294 292 303 307 306 306 304 298 291 283 276 277 272 266 263 255 248 243 241 239 239 248 251 249 242 241 242 239 235
322 321 309 306 319 307 310 308 306 304 309 315 316 314 304 298 300 299 296 292 292 289 288 292 288 280 279 276 273 270 262 256 253 244 242 249 252 251 248 245 242 242 239
309 304 297 290 288 287 295 304 301 294 302 308 309 311 307 299 291 290 283 276 281 282 278 274 275 273 274 278 279 272 267 263 260 256 247 250 254 253 253 252 248 246 246
292 300 299 267 268 271 275 277 277 291 307 313 319 325 324 322 321 320 321 310 299 292 288 289 287 289 287 284 282 278 271 265 263 258 261 260 260 249 249 256 251 247 253
278 291 288 280 261 262 250 256 279 308 324 343 351 352 352 353 350 347 343 339 339 331 329 317 313 307 302 299 299 295 295 291 270 266 262 263 260 260 256 260 253 245 245